Weather History for KFLP - January, 2014

Change the Weather History Date:

Wednesday, January 15, 2014

  Actual Average Record
Temperature  
Mean Temperature 30 °F -  
Max Temperature 37 °F 45 °F 62 °F (2000)
Min Temperature 24 °F 26 °F 14 °F (2009)
Degree Days  
Heating Degree Days 34    
Moisture  
Dew Point 6 °F    
Average Humidity 35    
Maximum Humidity 54    
Minimum Humidity 22    
Precipitation  
Precipitation 0.00 in - - ()
Sea Level Pressure  
Sea Level Pressure 30.15 in    
Wind  
Wind Speed 9 mph (NW)    
Max Wind Speed 17 mph    
Max Gust Speed 25 mph    
Visibility 10 miles    
Events      
Averages and records for this station are not official NWS values.
T = Trace of Precipitation, MM = Missing Value Source: NWS Daily Summary

Daily Weather History Graph

Daily Weather History Graph

Search for Another Location

Airport or City:

Trip Planner

Search our weather history database for the weather conditions in past years. The results will help you decide how hot, cold, wet, or windy it might be!

Date:

Astronomy

Jan. 15, 2014 Rise Set
Actual Time 7:20 AM CST 5:19 PM CST
Civil Twilight 6:52 AM CST 5:47 PM CST
Nautical Twilight 6:21 AM CST 6:18 PM CST
Astronomical Twilight 5:50 AM CST 6:49 PM CST
Moon 5:15 PM CST (1/15) 6:38 AM CST (1/15)
Length of Visible Light 10h 54m
Length of Day
9h 58m
Full, 100% of the Moon is Illuminated
Jan 15
Full
Jan 15
Full
Jan 23
Last Quarter
Jan 30
New
Feb 6
First Quarter

Hourly Weather History & Observations

Time (CST) Temp. Windchill Dew Point Humidity Pressure Visibility Wind Dir Wind Speed Gust Speed Precip Events Conditions
12:15 AM 35.6 °F 29.2 °F 8.6 °F 33% 30.16 in 10.0 mi WNW 8.1 mph - N/A   Clear
12:35 AM 35.6 °F 29.2 °F 8.6 °F 33% 30.16 in 10.0 mi WNW 8.1 mph - N/A   Clear
12:55 AM 35.6 °F 29.2 °F 8.6 °F 33% 30.15 in 10.0 mi WNW 8.1 mph - N/A   Clear
1:15 AM 33.8 °F 27.0 °F 8.6 °F 35% 30.15 in 10.0 mi WNW 8.1 mph - N/A   Clear
1:35 AM 33.8 °F 27.7 °F 8.6 °F 35% 30.16 in 10.0 mi WNW 6.9 mph - N/A   Clear
1:55 AM 33.8 °F 27.7 °F 8.6 °F 35% 30.17 in 10.0 mi WNW 6.9 mph - N/A   Clear
2:15 AM 33.8 °F 27.0 °F 8.6 °F 35% 30.17 in 10.0 mi NW 8.1 mph - N/A   Clear
2:35 AM 33.8 °F 27.7 °F 8.6 °F 35% 30.17 in 10.0 mi NW 6.9 mph - N/A   Clear
2:55 AM 32.0 °F 25.6 °F 8.6 °F 38% 30.18 in 10.0 mi NNW 6.9 mph - N/A   Clear
3:15 AM 32.0 °F 23.6 °F 8.6 °F 38% 30.18 in 10.0 mi NNW 10.4 mph 18.4 mph N/A   Clear
3:35 AM 30.2 °F 19.8 °F 6.8 °F 37% 30.18 in 10.0 mi NNW 13.8 mph 19.6 mph N/A   Clear
3:55 AM 30.2 °F 21.9 °F 6.8 °F 37% 30.18 in 10.0 mi NW 9.2 mph - N/A   Clear
4:15 AM 30.2 °F 22.6 °F 6.8 °F 37% 30.18 in 10.0 mi NW 8.1 mph - N/A   Clear
4:35 AM 28.4 °F 18.5 °F 6.8 °F 40% 30.17 in 10.0 mi NW 11.5 mph - N/A   Clear
4:55 AM 28.4 °F 19.1 °F 6.8 °F 40% 30.17 in 10.0 mi NNW 10.4 mph - N/A   Clear
5:15 AM 28.4 °F 20.4 °F 6.8 °F 40% 30.17 in 10.0 mi NW 8.1 mph - N/A   Clear
5:35 AM 28.4 °F 20.4 °F 6.8 °F 40% 30.17 in 10.0 mi WNW 8.1 mph - N/A   Clear
5:55 AM 28.4 °F 19.1 °F 6.8 °F 40% 30.17 in 10.0 mi WNW 10.4 mph - N/A   Clear
6:15 AM 28.4 °F 18.5 °F 6.8 °F 40% 30.18 in 10.0 mi NW 11.5 mph 16.1 mph N/A   Clear
6:35 AM 28.4 °F 19.7 °F 6.8 °F 40% 30.19 in 10.0 mi NW 9.2 mph 17.3 mph N/A   Clear
6:55 AM 26.6 °F 18.2 °F 6.8 °F 43% 30.19 in 10.0 mi NW 8.1 mph 18.4 mph N/A   Clear
7:15 AM 26.6 °F 16.8 °F 6.8 °F 43% 30.19 in 10.0 mi WNW 10.4 mph 16.1 mph N/A   Clear
7:35 AM 26.6 °F 18.2 °F 6.8 °F 43% 30.20 in 10.0 mi WNW 8.1 mph - N/A   Clear
7:55 AM 26.6 °F 20.0 °F 6.8 °F 43% 30.20 in 10.0 mi NW 5.8 mph - N/A   Clear
8:15 AM 26.6 °F 19.1 °F 8.6 °F 47% 30.21 in 10.0 mi WNW 6.9 mph - N/A   Clear
8:35 AM 28.4 °F 19.1 °F 8.6 °F 43% 30.22 in 10.0 mi NW 10.4 mph 17.3 mph N/A   Clear
8:55 AM 28.4 °F 16.2 °F 5.0 °F 37% 30.23 in 10.0 mi NW 17.3 mph 23.0 mph N/A   Clear
9:15 AM 28.4 °F 16.2 °F 3.2 °F 34% 30.23 in 10.0 mi WNW 17.3 mph 21.9 mph N/A   Clear
9:35 AM 28.4 °F 16.2 °F 1.4 °F 31% 30.24 in 10.0 mi WNW 17.3 mph 24.2 mph N/A   Clear
9:55 AM 30.2 °F 18.5 °F 1.4 °F 29% 30.24 in 10.0 mi NW 17.3 mph 25.3 mph N/A   Clear
10:15 AM 30.2 °F 21.9 °F 1.4 °F 29% 30.24 in 10.0 mi NW 9.2 mph 18.4 mph N/A   Clear
10:35 AM 30.2 °F 20.2 °F 3.2 °F 32% 30.24 in 10.0 mi NW 12.7 mph 16.1 mph N/A   Clear
10:55 AM 30.2 °F 19.3 °F 3.2 °F 32% 30.24 in 10.0 mi NW 15.0 mph 19.6 mph N/A   Clear
11:15 AM 32.0 °F 21.6 °F 3.2 °F 30% 30.23 in 10.0 mi NW 15.0 mph - N/A   Clear
11:35 AM 33.8 °F 24.8 °F 3.2 °F 28% 30.22 in 10.0 mi NW 12.7 mph 20.7 mph N/A   Clear
11:55 AM 33.8 °F 24.8 °F 3.2 °F 28% 30.21 in 10.0 mi WNW 12.7 mph 18.4 mph N/A   Clear
12:15 PM 33.8 °F 23.2 °F 3.2 °F 28% 30.20 in 10.0 mi WNW 17.3 mph 21.9 mph N/A   Clear
12:35 PM 35.6 °F 25.5 °F 3.2 °F 26% 30.19 in 10.0 mi WNW 17.3 mph 24.2 mph N/A   Clear
12:55 PM 35.6 °F 25.9 °F 3.2 °F 26% 30.18 in 10.0 mi WNW 16.1 mph 23.0 mph N/A   Clear
1:15 PM 35.6 °F 26.2 °F 1.4 °F 24% 30.17 in 10.0 mi WNW 15.0 mph 21.9 mph N/A   Clear
1:35 PM 35.6 °F 26.2 °F 1.4 °F 24% 30.16 in 10.0 mi WNW 15.0 mph 24.2 mph N/A   Clear
1:55 PM 35.6 °F 27.5 °F 1.4 °F 24% 30.16 in 10.0 mi NW 11.5 mph 19.6 mph N/A   Clear
2:15 PM 37.4 °F 28.9 °F 1.4 °F 22% 30.15 in 10.0 mi NW 13.8 mph 17.3 mph N/A   Clear
2:35 PM 37.4 °F 30.8 °F 1.4 °F 22% 30.15 in 10.0 mi WNW 9.2 mph 19.6 mph N/A   Clear
2:55 PM 37.4 °F 29.3 °F 3.2 °F 24% 30.15 in 9.0 mi NW 12.7 mph 17.3 mph N/A   Clear
3:15 PM 37.4 °F 29.8 °F 3.2 °F 24% 30.15 in 10.0 mi WNW 11.5 mph 18.4 mph N/A   Clear
3:35 PM 37.4 °F 30.8 °F 3.2 °F 24% 30.15 in 10.0 mi West 9.2 mph - N/A   Clear
3:55 PM 37.4 °F 30.8 °F 3.2 °F 24% 30.15 in 10.0 mi NW 9.2 mph - N/A   Clear
4:15 PM 37.4 °F 31.4 °F 3.2 °F 24% 30.14 in 10.0 mi West 8.1 mph - N/A   Clear
4:35 PM 37.4 °F 30.3 °F 3.2 °F 24% 30.14 in 10.0 mi WNW 10.4 mph - N/A   Clear
4:55 PM 35.6 °F 31.7 °F 1.4 °F 24% 30.14 in 10.0 mi WNW 4.6 mph - N/A   Clear
5:15 PM 35.6 °F 31.7 °F 1.4 °F 24% 30.13 in 10.0 mi WNW 4.6 mph - N/A   Clear
5:35 PM 33.8 °F 30.8 °F 1.4 °F 25% 30.12 in 10.0 mi WNW 3.5 mph - N/A   Clear
5:55 PM 33.8 °F - 1.4 °F 25% 30.12 in 10.0 mi Calm Calm - N/A   Clear
6:15 PM 30.2 °F - 1.4 °F 29% 30.12 in 10.0 mi Calm Calm - N/A   Clear
6:35 PM 32.0 °F - 1.4 °F 27% 30.11 in 10.0 mi Calm Calm - N/A   Clear
6:55 PM 28.4 °F - 3.2 °F 34% 30.11 in 10.0 mi Calm Calm - N/A   Clear
7:15 PM 26.6 °F - 5.0 °F 40% 30.11 in 10.0 mi Calm Calm - N/A   Clear
7:35 PM 28.4 °F 24.6 °F 5.0 °F 37% 30.10 in 10.0 mi West 3.5 mph - N/A   Clear
7:55 PM 28.4 °F - 5.0 °F 37% 30.10 in 10.0 mi Calm Calm - N/A   Clear
8:15 PM 26.6 °F - 6.8 °F 43% 30.09 in 10.0 mi Calm Calm - N/A   Clear
8:35 PM 26.6 °F - 6.8 °F 43% 30.08 in 10.0 mi Calm Calm - N/A   Clear
8:55 PM 24.8 °F - 6.8 °F 46% 30.07 in 10.0 mi Calm Calm - N/A   Partly Cloudy
9:15 PM 24.8 °F 20.5 °F 10.4 °F 54% 30.06 in 10.0 mi WSW 3.5 mph - N/A   Mostly Cloudy
9:35 PM 26.6 °F - 10.4 °F 51% 30.05 in 10.0 mi Calm Calm - N/A   Overcast
9:55 PM 26.6 °F - 10.4 °F 51% 30.05 in 10.0 mi Calm Calm - N/A   Overcast
10:15 PM 26.6 °F - 10.4 °F 51% 30.04 in 10.0 mi Calm Calm - N/A   Overcast
10:35 PM 26.6 °F 22.6 °F 10.4 °F 51% 30.03 in 10.0 mi SE 3.5 mph - N/A   Mostly Cloudy
10:55 PM 28.4 °F 24.6 °F 8.6 °F 43% 30.02 in 10.0 mi East 3.5 mph - N/A   Mostly Cloudy
11:15 PM 28.4 °F 24.6 °F 8.6 °F 43% 30.00 in 10.0 mi ESE 3.5 mph - N/A   Overcast
11:35 PM 30.2 °F 26.7 °F 10.4 °F 44% 29.99 in 10.0 mi SE 3.5 mph - N/A   Overcast
11:55 PM 30.2 °F 25.4 °F 12.2 °F 47% 29.98 in 10.0 mi ESE 4.6 mph - N/A   Mostly Cloudy